GW2830 Weather Reports


time (UTC)temp
C
wind
direction
speed
KPH
gust
KPH
rain 1hr
cm
rain 24hr
cm
rain mn
cm
humidity
%
barometer
mb
20260906104108 16 289 0.0 0.0 0.00 0.00 0.00 99 1014.0
20260906103606 16 282 0.0 0.0 0.00 0.00 0.00 99 1014.0
20260906103101 16 252 0.0 0.0 0.00 0.00 0.00 99 1013.9
20260906102555 16 248 0.0 0.0 0.00 0.00 0.00 99 1013.8
20260906102050 16 254 0.0 0.0 0.00 0.00 0.00 99 1013.6
20260906101545 16 255 0.0 0.0 0.00 0.00 0.00 99 1013.8
20260906101040 16 254 0.0 0.0 0.00 0.00 0.00 99 1013.7
20260906100535 16 254 0.0 0.0 0.00 0.00 0.00 99 1013.6
20260906100030 16 254 0.0 0.0 0.00 0.00 0.00 99 1013.7
20260906095524 16 253 0.0 0.0 0.00 0.00 0.00 99 1013.7
20260906095020 16 253 0.0 0.0 0.00 0.00 0.00 99 1013.6
20260906094518 16 253 0.0 0.0 0.00 0.00 0.00 98 1013.3
20260906094009 16 258 0.0 0.0 0.00 0.00 0.00 98 1013.4
20260906093505 16 258 0.0 0.0 0.00 0.00 0.00 98 1013.3
20260906092959 16 258 0.0 0.0 0.00 0.00 0.00 98 1013.3
20260906092453 17 257 0.0 0.0 0.00 0.00 0.00 98 1013.4
20260906091948 17 257 0.0 0.0 0.00 0.00 0.00 98 1013.8
20260906091444 17 259 0.0 0.0 0.00 0.00 0.00 97 1013.6
20260906090940 17 213 0.0 0.0 0.00 0.00 0.00 97 1013.6
20260906090436 17 251 0.0 0.0 0.00 0.00 0.00 97 1013.3
20260906085930 17 201 0.0 0.0 0.00 0.00 0.00 97 1013.2
20260906085430 17 250 0.0 0.0 0.00 0.00 0.00 97 1013.3
20260906084929 17 270 0.0 0.0 0.00 0.00 0.00 97 1013.3
20260906084424 17 218 0.0 0.0 0.00 0.00 0.00 97 1013.2
20260906083923 17 191 0.0 0.0 0.00 0.00 0.00 97 1013.2
20260906083418 17 294 0.0 0.0 0.00 0.00 0.00 97 1013.1
20260906082918 17 353 1.6 1.6 0.00 0.00 0.00 97 1013.1
20260906082413 17 310 0.0 0.0 0.00 0.00 0.00 97 1013.0
20260906081909 17 21 0.0 0.0 0.00 0.00 0.00 97 1013.0
20260906081404 17 23 0.0 0.0 0.00 0.00 0.00 97 1012.9
20260906080900 17 319 0.0 0.0 0.00 0.00 0.00 97 1013.2
20260906080357 17 26 1.6 3.2 0.00 0.00 0.00 97 1013.1
20260906075855 18 351 0.0 0.0 0.00 0.00 0.00 97 1012.8
20260906075350 18 61 0.0 0.0 0.00 0.00 0.00 97 1013.0
20260906074846 18 310 0.0 0.0 0.00 0.00 0.00 96 1012.9
20260906074346 18 306 0.0 0.0 0.00 0.00 0.00 96 1013.3
20260906073845 18 301 0.0 0.0 0.00 0.00 0.00 96 1013.0
20260906073345 18 333 0.0 0.0 0.00 0.00 0.00 95 1012.9
20260906072842 18 320 0.0 0.0 0.00 0.00 0.00 95 1012.7
20260906072337 18 124 1.6 3.2 0.00 0.00 0.00 95 1012.8
20260906071833 18 115 1.6 1.6 0.00 0.00 0.00 95 1012.7
20260906071328 18 76 1.6 3.2 0.00 0.00 0.00 95 1012.7
20260906070824 18 9 0.0 1.6 0.00 0.00 0.00 95 1012.8
20260906070319 18 33 1.6 1.6 0.00 0.00 0.00 95 1012.7
20260906065814 18 327 1.6 1.6 0.00 0.00 0.00 95 1012.8
20260906065309 18 23 0.0 1.6 0.00 0.00 0.00 95 1012.9
20260906064805 18 63 3.2 3.2 0.00 0.00 0.00 95 1012.8
20260906064301 18 35 3.2 3.2 0.00 0.00 0.00 95 1013.1
20260906063801 19 162 0.0 1.6 0.00 0.00 0.00 95 1013.1
20260906063256 19 104 0.0 0.0 0.00 0.00 0.00 95 1013.0
20260906062751 19 66 3.2 3.2 0.00 0.00 0.00 95 1013.1
20260906062250 19 17 1.6 3.2 0.00 0.00 0.00 96 1013.1
20260906061746 19 58 1.6 3.2 0.00 0.00 0.00 95 1013.0
20260906061243 19 173 3.2 3.2 0.00 0.00 0.00 95 1012.9
20260906060737 19 130 0.0 0.0 0.00 0.00 0.00 95 1012.9
20260906060235 19 318 0.0 0.0 0.00 0.00 0.00 95 1012.7
20260906055731 20 17 0.0 1.6 0.00 0.00 0.00 95 1012.7
20260906055226 20 317 0.0 1.6 0.00 0.00 0.00 95 1012.8
20260906054721 20 53 1.6 1.6 0.00 0.00 0.00 96 1012.8
20260906054216 20 104 0.0 1.6 0.00 0.00 0.00 96 1012.7
20260906053713 20 88 1.6 4.8 0.00 0.00 0.00 96 1012.6
20260906053208 20 332 0.0 0.0 0.00 0.00 0.00 96 1012.5
20260906052703 20 7 1.6 1.6 0.00 0.00 0.00 96 1012.6
20260906052159 20 27 0.0 0.0 0.00 0.00 0.00 96 1012.3
20260906051656 20 293 0.0 0.0 0.00 0.00 0.00 96 1012.4
20260906051155 20 98 0.0 1.6 0.00 0.00 0.00 96 1012.4
20260906050651 20 187 0.0 0.0 0.00 0.00 0.00 96 1012.5
20260906050146 20 131 0.0 1.6 0.00 0.00 0.00 96 1012.5
20260906045644 21 20 0.0 1.6 0.00 0.00 0.00 96 1012.4
20260906045140 21 163 1.6 3.2 0.00 0.00 0.00 96 1012.4
20260906044636 21 351 1.6 1.6 0.00 0.00 0.00 97 1012.3
20260906044131 21 306 0.0 0.0 0.00 0.00 0.00 96 1012.4
20260906043627 21 270 0.0 0.0 0.00 0.00 0.00 96 1012.3
20260906043122 21 287 0.0 0.0 0.00 0.00 0.00 96 1012.2
20260906042621 21 201 0.0 1.6 0.00 0.00 0.00 95 1012.2
20260906042115 21 324 1.6 1.6 0.00 0.00 0.00 95 1012.1
20260906041612 21 267 0.0 0.0 0.00 0.00 0.00 95 1012.3
20260906041106 21 292 0.0 0.0 0.00 0.00 0.00 95 1012.3
20260906040602 21 291 0.0 0.0 0.00 0.00 0.00 95 1012.4
20260906040057 21 210 0.0 0.0 0.00 0.03 0.03 94 1012.3
20260906035552 21 218 0.0 0.0 0.00 0.03 0.03 94 1012.0
20260906035048 21 323 0.0 0.0 0.00 0.03 0.03 94 1012.3
20260906034548 21 322 0.0 0.0 0.00 0.03 0.03 94 1012.2
20260906034037 21 322 0.0 0.0 0.00 0.03 0.03 94 1012.2
20260906033532 21 331 0.0 0.0 0.00 0.03 0.03 94 1012.1
20260906033027 21 273 0.0 0.0 0.00 0.03 0.03 94 1012.0
20260906032524 21 285 0.0 0.0 0.00 0.03 0.03 94 1012.0
20260906032018 21 59 0.0 0.0 0.00 0.03 0.03 94 1012.0
20260906031514 21 318 0.0 0.0 0.00 0.03 0.03 93 1012.0
20260906031010 21 144 0.0 1.6 0.00 0.03 0.03 93 1011.9
20260906030509 22 228 0.0 0.0 0.00 0.03 0.03 93 1012.2
20260906030008 22 212 0.0 0.0 0.00 0.03 0.03 93 1012.1
20260906025508 22 214 0.0 0.0 0.00 0.03 0.03 93 1012.1
20260906025006 22 179 0.0 1.6 0.00 0.03 0.03 93 1011.8
20260906024501 22 204 0.0 0.0 0.00 0.03 0.03 93 1012.0
20260906023956 22 297 0.0 0.0 0.00 0.03 0.03 93 1011.9
20260906023453 22 297 0.0 0.0 0.00 0.03 0.03 92 1012.0
20260906022952 22 307 0.0 0.0 0.00 0.03 0.03 93 1012.1
20260906022443 22 294 0.0 0.0 0.00 0.03 0.03 92 1011.7
20260906021937 22 25 1.6 1.6 0.00 0.03 0.03 92 1011.9
20260906021432 22 40 0.0 1.6 0.00 0.03 0.03 92 1011.8
20260906020926 22 64 0.0 1.6 0.00 0.03 0.03 92 1011.9
20260906020421 22 15 0.0 1.6 0.00 0.03 0.03 92 1011.7
20260906015920 22 44 0.0 0.0 0.00 0.03 0.03 92 1011.8
20260906015415 22 143 0.0 0.0 0.00 0.03 0.03 91 1012.0
20260906014915 22 313 1.6 1.6 0.00 0.03 0.03 91 1011.6
20260906014414 22 167 0.0 0.0 0.00 0.03 0.03 91 1011.5
20260906013911 22 63 0.0 0.0 0.00 0.03 0.03 91 1011.5
20260906013406 22 67 0.0 0.0 0.00 0.03 0.03 91 1011.6
20260906012902 22 48 0.0 1.6 0.00 0.03 0.03 91 1011.5
20260906012356 22 338 0.0 1.6 0.00 0.03 0.03 91 1011.3
20260906011855 22 55 0.0 1.6 0.00 0.03 0.03 91 1011.2
20260906011350 22 6 1.6 1.6 0.00 0.03 0.03 90 1011.3
20260906010846 22 18 0.0 0.0 0.00 0.03 0.03 90 1011.0
20260906010342 22 6 3.2 4.8 0.00 0.03 0.03 90 1011.3
20260906005838 22 31 1.6 3.2 0.00 0.03 0.03 90 1011.1
20260906005337 22 306 0.0 0.0 0.00 0.03 0.03 90 1011.2
20260906004836 22 19 1.6 3.2 0.00 0.03 0.03 90 1011.2
20260906004336 22 40 1.6 3.2 0.00 0.03 0.03 90 1011.1
20260906003831 22 328 0.0 1.6 0.00 0.03 0.03 90 1011.1
20260906003326 22 119 3.2 4.8 0.00 0.03 0.03 90 1010.9
20260906002822 22 20 3.2 3.2 0.00 0.03 0.03 90 1010.9
20260906002321 23 111 1.6 1.6 0.00 0.03 0.03 90 1010.9
20260906001817 22 355 1.6 1.6 0.00 0.03 0.03 90 1010.8
20260906001312 22 54 0.0 1.6 0.00 0.03 0.03 91 1010.8
20260906000808 22 85 1.6 1.6 0.00 0.03 0.03 91 1010.7
20260906000303 22 87 3.2 3.2 0.00 0.03 0.03 91 1010.5
20260905235757 23 317 0.0 0.0 0.00 0.03 0.03 91 1010.5
20260905235257 23 350 1.6 1.6 0.00 0.03 0.03 91 1010.5
20260905234752 23 70 0.0 1.6 0.00 0.03 0.03 90 1010.4
20260905234247 23 11 1.6 1.6 0.00 0.03 0.03 90 1010.3
20260905233742 23 83 0.0 1.6 0.00 0.03 0.03 90 1010.4
20260905233241 23 355 0.0 1.6 0.00 0.03 0.03 90 1010.4
20260905232736 23 273 1.6 1.6 0.00 0.03 0.03 90 1010.4
20260905232232 23 59 3.2 3.2 0.00 0.03 0.03 90 1010.4
20260905231728 24 265 1.6 1.6 0.00 0.03 0.03 91 1010.3
20260905231223 24 24 1.6 1.6 0.00 0.03 0.03 90 1010.4
20260905230719 24 45 3.2 4.8 0.00 0.03 0.03 90 1010.3
20260905230216 24 78 0.0 1.6 0.00 0.03 0.03 90 1010.3
20260905225710 24 16 1.6 3.2 0.00 0.03 0.03 90 1010.1
20260905225205 25 46 0.0 1.6 0.00 0.03 0.03 90 1010.0
20260905224704 25 53 4.8 6.4 0.00 0.03 0.03 90 1010.0
20260905224200 25 318 1.6 1.6 0.00 0.03 0.03 89 1010.0
20260905223656 25 92 4.8 9.7 0.00 0.03 0.03 88 1009.9
20260905223153 25 346 1.6 1.6 0.00 0.03 0.03 88 1009.8
20260905222648 26 12 1.6 3.2 0.00 0.03 0.03 87 1009.7
20260905222143 26 89 1.6 1.6 0.00 0.03 0.03 86 1009.7
20260905221638 26 5 1.6 1.6 0.00 0.03 0.03 87 1009.8
20260905221135 26 63 3.2 3.2 0.00 0.03 0.03 87 1009.5
20260905220631 26 358 3.2 3.2 0.00 0.03 0.03 86 1009.4
20260905220127 26 358 1.6 1.6 0.00 0.03 0.03 85 1009.4
20260905215626 26 323 1.6 1.6 0.00 0.03 0.03 85 1009.2
20260905215122 26 284 0.0 0.0 0.00 0.03 0.03 87 1009.4
20260905214618 26 329 1.6 1.6 0.00 0.03 0.03 85 1009.5
20260905214118 26 88 3.2 4.8 0.00 0.03 0.03 84 1009.2
20260905213613 28 355 1.6 1.6 0.00 0.03 0.03 81 1009.2
20260905213108 29 292 1.6 3.2 0.00 0.03 0.03 76 1009.2
20260905212603 28 295 0.0 1.6 0.00 0.03 0.03 77 1009.2
20260905212102 28 139 1.6 1.6 0.00 0.03 0.03 79 1009.2
20260905211558 27 249 0.0 1.6 0.00 0.03 0.03 83 1009.3
20260905211053 27 336 1.6 1.6 0.00 0.03 0.03 83 1009.3
20260905210549 26 283 0.0 1.6 0.00 0.03 0.03 84 1009.4
20260905210044 26 293 0.0 0.0 0.00 0.03 0.03 83 1009.4
20260905205543 27 334 1.6 1.6 0.00 0.03 0.03 81 1009.2
20260905205042 28 307 1.6 1.6 0.00 0.03 0.03 79 1009.3
20260905204537 28 55 1.6 1.6 0.00 0.03 0.03 80 1009.3
20260905204033 28 29 1.6 3.2 0.00 0.03 0.03 79 1009.1
20260905203532 27 168 0.0 1.6 0.00 0.03 0.03 80 1009.2
20260905203028 28 137 3.2 4.8 0.00 0.03 0.03 77 1009.2
20260905202523 28 298 4.8 6.4 0.00 0.03 0.03 78 1009.1
20260905202018 29 101 1.6 3.2 0.00 0.03 0.03 77 1009.2
20260905201514 27 321 3.2 3.2 0.00 0.03 0.03 80 1009.2
20260905201014 28 296 1.6 1.6 0.00 0.03 0.03 80 1009.0
20260905200509 28 53 3.2 4.8 0.00 0.03 0.03 80 1009.4
20260905200008 28 198 3.2 4.8 0.00 0.03 0.03 79 1009.4
20260905195502 30 297 1.6 1.6 0.00 0.03 0.03 76 1009.2
20260905194958 28 289 1.6 1.6 0.00 0.03 0.03 81 1009.4
20260905194452 27 314 0.0 0.0 0.00 0.03 0.03 82 1009.3
20260905193946 28 266 0.0 0.0 0.00 0.03 0.03 83 1009.3
20260905193441 28 263 1.6 1.6 0.00 0.03 0.03 77 1009.7
20260905192936 28 85 1.6 1.6 0.00 0.03 0.03 82 1009.4
20260905192431 27 308 0.0 0.0 0.00 0.03 0.03 82 1009.4
20260905191926 28 21 1.6 1.6 0.00 0.03 0.03 80 1009.5
20260905191425 28 290 1.6 1.6 0.00 0.03 0.03 78 1009.4
20260905190920 29 38 3.2 3.2 0.00 0.03 0.03 77 1009.4
20260905190418 29 246 1.6 1.6 0.00 0.03 0.03 76 1009.6
20260905185917 29 128 4.8 4.8 0.00 0.03 0.03 76 1009.5
20260905185412 28 289 0.0 1.6 0.00 0.03 0.03 78 1009.3
20260905184910 28 205 0.0 0.0 0.00 0.03 0.03 78 1009.5
20260905184410 28 80 1.6 1.6 0.00 0.03 0.03 78 1009.7
20260905183909 29 263 0.0 1.6 0.00 0.03 0.03 77 1009.6
20260905183405 28 54 1.6 1.6 0.00 0.03 0.03 77 1009.6
20260905182859 28 329 3.2 3.2 0.00 0.03 0.03 79 1009.7
20260905182353 28 80 1.6 1.6 0.00 0.03 0.03 78 1009.5
20260905181849 28 291 0.0 1.6 0.00 0.03 0.03 79 1009.5
20260905181348 28 286 3.2 3.2 0.00 0.03 0.03 80 1009.6
20260905180847 29 194 1.6 3.2 0.00 0.03 0.03 76 1009.6
20260905180342 28 283 1.6 1.6 0.00 0.03 0.03 76 1009.8
20260905175837 28 281 0.0 0.0 0.00 0.03 0.03 81 1009.8
20260905175331 28 15 1.6 1.6 0.00 0.03 0.03 81 1009.8
20260905174827 28 262 0.0 0.0 0.00 0.03 0.03 81 1009.7
20260905174322 28 247 0.0 0.0 0.00 0.03 0.03 82 1009.9
20260905173813 28 100 0.0 0.0 0.00 0.03 0.03 81 1009.8
20260905173308 28 292 0.0 0.0 0.00 0.03 0.03 83 1009.7
20260905172808 28 246 0.0 0.0 0.00 0.03 0.03 81 1009.8
20260905172306 29 221 1.6 3.2 0.00 0.03 0.03 78 1009.9
20260905171802 28 223 0.0 0.0 0.00 0.03 0.03 78 1009.7
20260905171259 28 294 0.0 1.6 0.00 0.03 0.03 83 1009.9
20260905170755 27 200 0.0 0.0 0.00 0.03 0.03 82 1009.7
20260905170250 28 348 0.0 1.6 0.00 0.03 0.03 82 1010.2
20260905165749 27 287 0.0 0.0 0.00 0.03 0.03 85 1009.8
20260905165245 27 287 0.0 0.0 0.00 0.03 0.03 86 1010.3
20260905164740 27 157 1.6 1.6 0.00 0.03 0.03 83 1010.2
20260905164235 27 265 0.0 0.0 0.00 0.03 0.03 81 1009.9
20260905163731 27 275 0.0 0.0 0.00 0.03 0.03 85 1010.1
20260905163227 27 234 0.0 0.0 0.00 0.03 0.03 83 1010.0
20260905162722 27 257 0.0 0.0 0.00 0.03 0.03 84 1010.1
20260905162222 27 265 0.0 0.0 0.00 0.03 0.03 87 1010.0
20260905161717 26 209 0.0 0.0 0.00 0.03 0.03 86 1010.2
20260905161215 26 258 1.6 1.6 0.00 0.03 0.03 86 1010.2
20260905160713 26 217 1.6 1.6 0.00 0.03 0.03 87 1010.1
20260905160208 26 341 0.0 1.6 0.00 0.03 0.03 86 1010.0
20260905155708 26 290 3.2 3.2 0.00 0.03 0.03 88 1010.0
20260905155207 26 223 1.6 3.2 0.00 0.03 0.03 88 1010.1
20260905154656 26 253 1.6 1.6 0.00 0.03 0.03 89 1010.3
20260905154151 25 241 3.2 3.2 0.00 0.03 0.03 89 1009.8
20260905153647 25 258 0.0 1.6 0.00 0.03 0.03 88 1010.0
20260905153143 25 271 0.0 1.6 0.00 0.03 0.03 88 1010.1
20260905152637 26 213 0.0 1.6 0.00 0.03 0.03 87 1010.1
20260905152132 26 345 1.6 1.6 0.00 0.03 0.03 88 1010.0
20260905151627 25 264 0.0 0.0 0.00 0.03 0.03 90 1010.1
20260905151123 25 304 0.0 0.0 0.00 0.03 0.03 91 1010.0
20260905150618 25 324 1.6 3.2 0.00 0.03 0.03 91 1009.9
20260905150116 25 15 1.6 3.2 0.00 0.03 0.03 92 1010.0
20260905145614 25 59 1.6 1.6 0.00 0.03 0.03 91 1010.1
20260905145113 25 229 0.0 0.0 0.00 0.03 0.03 90 1009.9
20260905144609 25 201 0.0 1.6 0.00 0.03 0.03 90 1009.9
20260905144108 25 207 0.0 1.6 0.00 0.03 0.03 90 1010.0
20260905143608 25 306 0.0 0.0 0.00 0.03 0.03 91 1009.9
20260905143103 25 140 0.0 0.0 0.00 0.03 0.03 90 1010.4
20260905142601 25 190 3.2 3.2 0.00 0.03 0.03 90 1010.2
20260905142056 25 232 0.0 0.0 0.00 0.03 0.03 90 1010.1
20260905141555 25 38 1.6 1.6 0.00 0.03 0.03 92 1010.0
20260905141052 23 175 0.0 1.6 0.00 0.03 0.03 94 1009.9
20260905140548 23 214 0.0 0.0 0.00 0.03 0.03 95 1010.1
20260905140046 23 248 0.0 0.0 0.00 0.03 0.03 96 1010.1
20260905135542 23 357 1.6 3.2 0.00 0.03 0.03 97 1010.1
20260905135036 23 19 0.0 0.0 0.00 0.03 0.03 97 1010.0
20260905134531 23 316 0.0 1.6 0.00 0.03 0.03 98 1010.1
20260905134030 23 42 0.0 0.0 0.00 0.03 0.03 98 1010.0
20260905133525 22 214 0.0 0.0 0.00 0.03 0.03 99 1009.8
20260905133020 22 125 0.0 0.0 0.00 0.03 0.03 99 1009.6
20260905132520 22 254 0.0 0.0 0.00 0.03 0.03 99 1009.8
20260905132020 22 322 1.6 1.6 0.00 0.03 0.03 99 1009.8
20260905131515 22 299 0.0 0.0 0.00 0.03 0.03 99 1009.9
20260905131011 22 57 1.6 1.6 0.00 0.03 0.03 99 1009.9
20260905130510 22 186 0.0 0.0 0.00 0.03 0.03 99 1009.6
20260905130005 22 6 1.6 1.6 0.00 0.03 0.03 99 1009.8
20260905125459 22 96 1.6 1.6 0.00 0.03 0.03 99 1009.8
20260905124954 22 349 0.0 1.6 0.00 0.03 0.03 99 1009.7
20260905124451 22 144 0.0 0.0 0.00 0.03 0.03 99 1009.6
20260905123946 22 152 0.0 0.0 0.00 0.03 0.03 99 1009.6
20260905123443 22 281 0.0 0.0 0.00 0.03 0.03 99 1009.8
20260905122942 22 303 0.0 0.0 0.00 0.03 0.03 99 1009.7
20260905122437 22 6 0.0 1.6 0.00 0.03 0.03 99 1009.5
20260905121933 22 272 0.0 1.6 0.00 0.03 0.03 99 1009.3
20260905121428 22 88 1.6 1.6 0.00 0.03 0.03 99 1009.3
20260905120927 22 308 0.0 0.0 0.00 0.03 0.03 99 1008.8
20260905120422 22 311 0.0 0.0 0.00 0.03 0.03 99 1009.1
20260905115916 22 295 0.0 0.0 0.00 0.03 0.03 99 1009.0
20260905115415 22 289 0.0 0.0 0.00 0.03 0.03 99 1008.8
20260905114910 22 284 0.0 0.0 0.00 0.03 0.03 99 1008.8
20260905114410 22 291 0.0 0.0 0.00 0.03 0.03 99 1008.8
20260905113904 22 223 0.0 0.0 0.00 0.03 0.03 99 1008.7
20260905113359 22 247 0.0 0.0 0.00 0.03 0.03 99 1008.7
20260905112854 22 272 0.0 0.0 0.00 0.03 0.03 99 1008.8
20260905112350 22 272 0.0 0.0 0.00 0.03 0.03 99 1008.6
20260905111844 22 262 0.0 0.0 0.00 0.03 0.03 99 1008.7
20260905111338 22 282 0.0 0.0 0.00 0.03 0.03 99 1008.5
20260905110838 22 249 0.0 0.0 0.00 0.03 0.03 99 1008.3
20260905110332 21 251 0.0 0.0 0.00 0.03 0.03 99 1008.2
20260905105827 22 252 0.0 0.0 0.00 0.03 0.03 99 1008.3
20260905105327 21 234 1.6 1.6 0.00 0.03 0.03 99 1008.4
20260905104821 21 306 0.0 0.0 0.00 0.03 0.03 99 1008.2